Year,Month,Day,Hour,Minute,Value (Times are PST for temperature in C)
2015,06,26,00,00,21.70
2015,06,26,00,01,21.60
2015,06,26,00,02,21.60
2015,06,26,00,03,21.60
2015,06,26,00,04,21.60
2015,06,26,00,05,21.60
2015,06,26,00,06,21.50
2015,06,26,00,07,21.50
2015,06,26,00,08,21.50
2015,06,26,00,09,21.50
2015,06,26,00,10,21.50
2015,06,26,00,11,21.40
2015,06,26,00,12,21.40
2015,06,26,00,13,21.40
2015,06,26,00,14,21.50
2015,06,26,00,15,21.50
2015,06,26,00,16,21.50
2015,06,26,00,17,21.50
2015,06,26,00,18,21.50
2015,06,26,00,19,21.60
2015,06,26,00,20,21.60
2015,06,26,00,21,21.60
2015,06,26,00,22,21.60
2015,06,26,00,23,21.60
2015,06,26,00,24,21.60
2015,06,26,00,25,21.60
2015,06,26,00,26,21.60
2015,06,26,00,27,21.60
2015,06,26,00,28,21.70
2015,06,26,00,29,21.70
2015,06,26,00,30,21.70
2015,06,26,00,31,21.70
2015,06,26,00,32,21.70
2015,06,26,00,33,21.70
2015,06,26,00,34,21.70
2015,06,26,00,35,21.70
2015,06,26,00,36,21.60
2015,06,26,00,37,21.60
2015,06,26,00,38,21.60
2015,06,26,00,39,21.60
2015,06,26,00,40,21.60
2015,06,26,00,41,21.60
2015,06,26,00,42,21.60
2015,06,26,00,43,21.60
2015,06,26,00,44,21.60
2015,06,26,00,45,21.60
2015,06,26,00,46,21.50
2015,06,26,00,47,21.50
2015,06,26,00,48,21.50
2015,06,26,00,49,21.50
2015,06,26,00,50,21.50
2015,06,26,00,51,21.50
2015,06,26,00,52,21.50
2015,06,26,00,53,21.50
2015,06,26,00,54,21.50
2015,06,26,00,55,21.40
2015,06,26,00,56,21.40
2015,06,26,00,57,21.40
2015,06,26,00,58,21.40
2015,06,26,00,59,21.40
2015,06,26,01,00,21.40
2015,06,26,01,01,21.40
2015,06,26,01,02,21.40
2015,06,26,01,03,21.40
2015,06,26,01,04,21.40
2015,06,26,01,05,21.40
2015,06,26,01,06,21.40
2015,06,26,01,07,21.40
2015,06,26,01,08,21.40
2015,06,26,01,09,21.40
2015,06,26,01,10,21.40
2015,06,26,01,11,21.40
2015,06,26,01,12,21.40
2015,06,26,01,13,21.40
2015,06,26,01,14,21.40
2015,06,26,01,15,21.40
2015,06,26,01,16,21.40
2015,06,26,01,17,21.40
2015,06,26,01,18,21.40
2015,06,26,01,19,21.40
2015,06,26,01,20,21.40
2015,06,26,01,21,21.40
2015,06,26,01,22,21.40
2015,06,26,01,23,21.50
2015,06,26,01,24,21.50
2015,06,26,01,25,21.50
2015,06,26,01,26,21.50
2015,06,26,01,27,21.50
2015,06,26,01,28,21.50
2015,06,26,01,29,21.50
2015,06,26,01,30,21.50
2015,06,26,01,31,21.50
2015,06,26,01,32,21.50
2015,06,26,01,33,21.50
2015,06,26,01,34,21.50
2015,06,26,01,35,21.50
2015,06,26,01,36,21.50
2015,06,26,01,37,21.40
2015,06,26,01,38,21.40
2015,06,26,01,39,21.40
2015,06,26,01,40,21.30
2015,06,26,01,41,21.30
2015,06,26,01,42,21.30
2015,06,26,01,43,21.20
2015,06,26,01,44,21.20
2015,06,26,01,45,21.10
2015,06,26,01,46,21.10
2015,06,26,01,47,21.00
2015,06,26,01,48,20.90
2015,06,26,01,49,20.90
2015,06,26,01,50,20.80
2015,06,26,01,51,20.80
2015,06,26,01,52,20.70
2015,06,26,01,53,20.70
2015,06,26,01,54,20.70
2015,06,26,01,55,20.60
2015,06,26,01,56,20.60
2015,06,26,01,57,20.60
2015,06,26,01,58,20.50
2015,06,26,01,59,20.50
2015,06,26,02,00,20.40
2015,06,26,02,01,20.40
2015,06,26,02,02,20.30
2015,06,26,02,03,20.30
2015,06,26,02,04,20.20
2015,06,26,02,05,20.20
2015,06,26,02,06,20.20
2015,06,26,02,07,20.10
2015,06,26,02,08,20.10
2015,06,26,02,09,20.10
2015,06,26,02,10,20.10
2015,06,26,02,11,20.00
2015,06,26,02,12,20.00
2015,06,26,02,13,20.00
2015,06,26,02,14,19.90
2015,06,26,02,15,19.90
2015,06,26,02,16,19.90
2015,06,26,02,17,20.00
2015,06,26,02,18,20.00
2015,06,26,02,19,20.00
2015,06,26,02,20,20.00
2015,06,26,02,21,20.10
2015,06,26,02,22,20.10
2015,06,26,02,23,20.10
2015,06,26,02,24,20.10
2015,06,26,02,25,20.20
2015,06,26,02,26,20.20
2015,06,26,02,27,20.20
2015,06,26,02,28,20.20
2015,06,26,02,29,20.20
2015,06,26,02,30,20.20
2015,06,26,02,31,20.20
2015,06,26,02,32,20.20
2015,06,26,02,33,20.10
2015,06,26,02,34,20.10
2015,06,26,02,35,20.10
2015,06,26,02,36,20.10
2015,06,26,02,37,20.00
2015,06,26,02,38,20.00
2015,06,26,02,39,20.00
2015,06,26,02,40,19.90
2015,06,26,02,41,19.90
2015,06,26,02,42,19.90
2015,06,26,02,43,19.90
2015,06,26,02,44,19.80
2015,06,26,02,45,19.80
2015,06,26,02,46,19.80
2015,06,26,02,47,19.80
2015,06,26,02,48,19.80
2015,06,26,02,49,19.80
2015,06,26,02,50,19.80
2015,06,26,02,51,19.80
2015,06,26,02,52,19.70
2015,06,26,02,53,19.70
2015,06,26,02,54,19.70
2015,06,26,02,55,19.70
2015,06,26,02,56,19.70
2015,06,26,02,57,19.70
2015,06,26,02,58,19.60
2015,06,26,02,59,19.60
2015,06,26,03,00,19.60
2015,06,26,03,01,19.60
2015,06,26,03,02,19.60
2015,06,26,03,03,19.50
2015,06,26,03,04,19.50
2015,06,26,03,05,19.50
2015,06,26,03,06,19.40
2015,06,26,03,07,19.40
2015,06,26,03,08,19.40
2015,06,26,03,09,19.40
2015,06,26,03,10,19.30
2015,06,26,03,11,19.30
2015,06,26,03,12,19.30
2015,06,26,03,13,19.20
2015,06,26,03,14,19.20
2015,06,26,03,15,19.20
2015,06,26,03,16,19.10
2015,06,26,03,17,19.10
2015,06,26,03,18,19.00
2015,06,26,03,19,19.00
2015,06,26,03,20,19.00
2015,06,26,03,21,18.90
2015,06,26,03,22,18.90
2015,06,26,03,23,18.90
2015,06,26,03,24,18.80
2015,06,26,03,25,18.80
2015,06,26,03,26,18.80
2015,06,26,03,27,18.80
2015,06,26,03,28,18.80
2015,06,26,03,29,18.80
2015,06,26,03,30,18.80
2015,06,26,03,31,18.80
2015,06,26,03,32,18.90
2015,06,26,03,33,18.90
2015,06,26,03,34,19.00
2015,06,26,03,35,19.00
2015,06,26,03,36,19.10
2015,06,26,03,37,19.10
2015,06,26,03,38,19.10
2015,06,26,03,39,19.20
2015,06,26,03,40,19.20
2015,06,26,03,41,19.20
2015,06,26,03,42,19.30
2015,06,26,03,43,19.30
2015,06,26,03,44,19.30
2015,06,26,03,45,19.30
2015,06,26,03,46,19.40
2015,06,26,03,47,19.40
2015,06,26,03,48,19.50
2015,06,26,03,49,19.50
2015,06,26,03,50,19.60
2015,06,26,03,51,19.60
2015,06,26,03,52,19.60
2015,06,26,03,53,19.60
2015,06,26,03,54,19.60
2015,06,26,03,55,19.70
2015,06,26,03,56,19.70
2015,06,26,03,57,19.70
2015,06,26,03,58,19.70
2015,06,26,03,59,19.70
2015,06,26,04,00,19.70
2015,06,26,04,01,19.70
2015,06,26,04,02,19.70
2015,06,26,04,03,19.70
2015,06,26,04,04,19.70
2015,06,26,04,05,19.60
2015,06,26,04,06,19.60
2015,06,26,04,07,19.60
2015,06,26,04,08,19.60
2015,06,26,04,09,19.60
2015,06,26,04,10,19.60
2015,06,26,04,11,19.60
2015,06,26,04,12,19.50
2015,06,26,04,13,19.50
2015,06,26,04,14,19.50
2015,06,26,04,15,19.50
2015,06,26,04,16,19.50
2015,06,26,04,17,19.40
2015,06,26,04,18,19.40
2015,06,26,04,19,19.40
2015,06,26,04,20,19.40
2015,06,26,04,21,19.40
2015,06,26,04,22,19.40
2015,06,26,04,23,19.30
2015,06,26,04,24,19.30
2015,06,26,04,25,19.30
2015,06,26,04,26,19.30
2015,06,26,04,27,19.30
2015,06,26,04,28,19.30
2015,06,26,04,29,19.30
2015,06,26,04,30,19.30
2015,06,26,04,31,19.30
2015,06,26,04,32,19.30
2015,06,26,04,33,19.20
2015,06,26,04,34,19.20
2015,06,26,04,35,19.20
2015,06,26,04,36,19.20
2015,06,26,04,37,19.20
2015,06,26,04,38,19.20
2015,06,26,04,39,19.20
2015,06,26,04,40,19.10
2015,06,26,04,41,19.10
2015,06,26,04,42,19.10
2015,06,26,04,43,19.10
2015,06,26,04,44,19.10
2015,06,26,04,45,19.10
2015,06,26,04,46,19.10
2015,06,26,04,47,19.10
2015,06,26,04,48,19.10
2015,06,26,04,49,19.10
2015,06,26,04,50,19.10
2015,06,26,04,51,19.10
2015,06,26,04,52,19.10
2015,06,26,04,53,19.10
2015,06,26,04,54,19.10
2015,06,26,04,55,19.10
2015,06,26,04,56,19.20
2015,06,26,04,57,19.20
2015,06,26,04,58,19.20
2015,06,26,04,59,19.20
2015,06,26,05,00,19.20
2015,06,26,05,01,19.30
2015,06,26,05,02,19.30
2015,06,26,05,03,19.30
2015,06,26,05,04,19.30
2015,06,26,05,05,19.30
2015,06,26,05,06,19.30
2015,06,26,05,07,19.30
2015,06,26,05,08,19.40
2015,06,26,05,09,19.40
2015,06,26,05,10,19.40
2015,06,26,05,11,19.40
2015,06,26,05,12,19.40
2015,06,26,05,13,19.40
2015,06,26,05,14,19.40
2015,06,26,05,15,19.40
2015,06,26,05,16,19.40
2015,06,26,05,17,19.40
2015,06,26,05,18,19.40
2015,06,26,05,19,19.40
2015,06,26,05,20,19.40
2015,06,26,05,21,19.40
2015,06,26,05,22,19.40
2015,06,26,05,23,19.40
2015,06,26,05,24,19.40
2015,06,26,05,25,19.40
2015,06,26,05,26,19.40
2015,06,26,05,27,19.40
2015,06,26,05,28,19.40
2015,06,26,05,29,19.40
2015,06,26,05,30,19.40
2015,06,26,05,31,19.30
2015,06,26,05,32,19.30
2015,06,26,05,33,19.30
2015,06,26,05,34,19.30
2015,06,26,05,35,19.20
2015,06,26,05,36,19.20
2015,06,26,05,37,19.20
2015,06,26,05,38,19.10
2015,06,26,05,39,19.10
2015,06,26,05,40,19.10
2015,06,26,05,41,19.00
2015,06,26,05,42,19.00
2015,06,26,05,43,19.00
2015,06,26,05,44,18.90
2015,06,26,05,45,18.90
2015,06,26,05,46,18.90
2015,06,26,05,47,18.90
2015,06,26,05,48,18.80
2015,06,26,05,49,18.80
2015,06,26,05,50,18.80
2015,06,26,05,51,18.80
2015,06,26,05,52,18.80
2015,06,26,05,53,18.80
2015,06,26,05,54,18.70
2015,06,26,05,55,18.70
2015,06,26,05,56,18.70
2015,06,26,05,57,18.70
2015,06,26,05,58,18.70
2015,06,26,05,59,18.70
2015,06,26,06,00,18.70
2015,06,26,06,01,18.70
2015,06,26,06,02,18.70
2015,06,26,06,03,18.70
2015,06,26,06,04,18.80
2015,06,26,06,05,18.80
2015,06,26,06,06,18.80
2015,06,26,06,07,18.80
2015,06,26,06,08,18.80
2015,06,26,06,09,18.90
2015,06,26,06,10,18.90
2015,06,26,06,11,18.90
2015,06,26,06,12,19.00
2015,06,26,06,13,19.00
2015,06,26,06,14,19.00
2015,06,26,06,15,19.10
2015,06,26,06,16,19.10
2015,06,26,06,17,19.10
2015,06,26,06,18,19.10
2015,06,26,06,19,19.10
2015,06,26,06,20,19.10
2015,06,26,06,21,19.10
2015,06,26,06,22,19.10
2015,06,26,06,23,19.20
2015,06,26,06,24,19.20
2015,06,26,06,25,19.20
2015,06,26,06,26,19.20
2015,06,26,06,27,19.20
2015,06,26,06,28,19.20
2015,06,26,06,29,19.20
2015,06,26,06,30,19.20
2015,06,26,06,31,19.20
2015,06,26,06,32,19.20
2015,06,26,06,33,19.20
2015,06,26,06,34,19.30
2015,06,26,06,35,19.30
2015,06,26,06,36,19.30
2015,06,26,06,37,19.30
2015,06,26,06,38,19.30
2015,06,26,06,39,19.30
2015,06,26,06,40,19.30
2015,06,26,06,41,19.30
2015,06,26,06,42,19.30
2015,06,26,06,43,19.30
2015,06,26,06,44,19.30
2015,06,26,06,45,19.30
2015,06,26,06,46,19.30
2015,06,26,06,47,19.30
2015,06,26,06,48,19.30
2015,06,26,06,49,19.30
2015,06,26,06,50,19.30
2015,06,26,06,51,19.30
2015,06,26,06,52,19.30
2015,06,26,06,53,19.30
2015,06,26,06,54,19.30
2015,06,26,06,55,19.30
2015,06,26,06,56,19.30
2015,06,26,06,57,19.30
2015,06,26,06,58,19.30
2015,06,26,06,59,19.30
2015,06,26,07,00,19.30
2015,06,26,07,01,19.30
2015,06,26,07,02,19.30
2015,06,26,07,03,19.20
2015,06,26,07,04,19.20
2015,06,26,07,05,19.20
2015,06,26,07,06,19.20
2015,06,26,07,07,19.20
2015,06,26,07,08,19.20
2015,06,26,07,09,19.20
2015,06,26,07,10,19.20
2015,06,26,07,11,19.20
2015,06,26,07,12,19.10
2015,06,26,07,13,19.10
2015,06,26,07,14,19.10
2015,06,26,07,15,19.20
2015,06,26,07,16,19.20
2015,06,26,07,17,19.20
2015,06,26,07,18,19.20
2015,06,26,07,19,19.20
2015,06,26,07,20,19.30
2015,06,26,07,21,19.30
2015,06,26,07,22,19.30
2015,06,26,07,23,19.40
2015,06,26,07,24,19.40
2015,06,26,07,25,19.50
2015,06,26,07,26,19.60
2015,06,26,07,27,19.60
2015,06,26,07,28,19.70
2015,06,26,07,29,19.80
2015,06,26,07,30,19.80
2015,06,26,07,31,19.80
2015,06,26,07,32,19.90
2015,06,26,07,33,19.90
2015,06,26,07,34,19.90
2015,06,26,07,35,20.00
2015,06,26,07,36,20.00
2015,06,26,07,37,20.10
2015,06,26,07,38,20.10
2015,06,26,07,39,20.10
2015,06,26,07,40,20.10
2015,06,26,07,41,20.20
2015,06,26,07,42,20.20
2015,06,26,07,43,20.20
2015,06,26,07,44,20.30
2015,06,26,07,45,20.30
2015,06,26,07,46,20.30
2015,06,26,07,47,20.30
2015,06,26,07,48,20.30
2015,06,26,07,49,20.30
2015,06,26,07,50,20.30
2015,06,26,07,51,20.30
2015,06,26,07,52,20.30
2015,06,26,07,53,20.30
2015,06,26,07,54,20.20
2015,06,26,07,55,20.20
2015,06,26,07,56,20.20
2015,06,26,07,57,20.10
2015,06,26,07,58,20.10
2015,06,26,07,59,20.10
2015,06,26,08,00,20.20
2015,06,26,08,01,20.20
2015,06,26,08,02,20.20
2015,06,26,08,03,20.20
2015,06,26,08,04,20.20
2015,06,26,08,05,20.20
2015,06,26,08,06,20.20
2015,06,26,08,07,20.30
2015,06,26,08,08,20.30
2015,06,26,08,09,20.30
2015,06,26,08,10,20.30
2015,06,26,08,11,20.40
2015,06,26,08,12,20.40
2015,06,26,08,13,20.40
2015,06,26,08,14,20.40
2015,06,26,08,15,20.40
2015,06,26,08,16,20.50
2015,06,26,08,17,20.50
2015,06,26,08,18,20.60
2015,06,26,08,19,20.60
2015,06,26,08,20,20.60
2015,06,26,08,21,20.60
2015,06,26,08,22,20.60
2015,06,26,08,23,20.60
2015,06,26,08,24,20.60
2015,06,26,08,25,20.60
2015,06,26,08,26,20.60
2015,06,26,08,27,20.70
2015,06,26,08,28,20.70
2015,06,26,08,29,20.70
2015,06,26,08,30,20.70
2015,06,26,08,31,20.80
2015,06,26,08,32,20.80
2015,06,26,08,33,20.80
2015,06,26,08,34,20.90
2015,06,26,08,35,20.90
2015,06,26,08,36,20.90
2015,06,26,08,37,20.90
2015,06,26,08,38,20.90
2015,06,26,08,39,21.00
2015,06,26,08,40,21.00
2015,06,26,08,41,21.00
2015,06,26,08,42,21.10
2015,06,26,08,43,21.10
2015,06,26,08,44,21.20
2015,06,26,08,45,21.20
2015,06,26,08,46,21.20
2015,06,26,08,47,21.20
2015,06,26,08,48,21.30
2015,06,26,08,49,21.30
2015,06,26,08,50,21.30
2015,06,26,08,51,21.30
2015,06,26,08,52,21.30
2015,06,26,08,53,21.30
2015,06,26,08,54,21.30
2015,06,26,08,55,21.30
2015,06,26,08,56,21.30
2015,06,26,08,57,21.30
2015,06,26,08,58,21.30
2015,06,26,08,59,21.30
2015,06,26,09,00,21.30
2015,06,26,09,01,21.30
2015,06,26,09,02,21.40
2015,06,26,09,03,21.40
2015,06,26,09,04,21.40
2015,06,26,09,05,21.50
2015,06,26,09,06,21.50
2015,06,26,09,07,21.50
2015,06,26,09,08,21.60
2015,06,26,09,09,21.60
2015,06,26,09,10,21.60
2015,06,26,09,11,21.70
2015,06,26,09,12,21.70
2015,06,26,09,13,21.70
2015,06,26,09,14,21.70
2015,06,26,09,15,21.70
2015,06,26,09,16,21.70
2015,06,26,09,17,21.70
2015,06,26,09,18,21.80
2015,06,26,09,19,21.80
2015,06,26,09,20,21.90
2015,06,26,09,21,21.90
2015,06,26,09,22,22.00
2015,06,26,09,23,22.10
2015,06,26,09,24,22.10
2015,06,26,09,25,22.20
2015,06,26,09,26,22.20
2015,06,26,09,27,22.20
2015,06,26,09,28,22.20
2015,06,26,09,29,22.20
2015,06,26,09,30,22.20
2015,06,26,09,31,22.20
2015,06,26,09,32,22.30
2015,06,26,09,33,22.30
2015,06,26,09,34,22.30
2015,06,26,09,35,22.30
2015,06,26,09,36,22.30
2015,06,26,09,37,22.30
2015,06,26,09,38,22.20
2015,06,26,09,39,22.20
2015,06,26,09,40,22.20
2015,06,26,09,41,22.20
2015,06,26,09,42,22.20
2015,06,26,09,43,22.20
2015,06,26,09,44,22.20
2015,06,26,09,45,22.30
2015,06,26,09,46,22.30
2015,06,26,09,47,22.30
2015,06,26,09,48,22.30
2015,06,26,09,49,22.30
2015,06,26,09,50,22.30
2015,06,26,09,51,22.30
2015,06,26,09,52,22.30
2015,06,26,09,53,22.30
2015,06,26,09,54,22.30
2015,06,26,09,55,22.30
2015,06,26,09,56,22.40
2015,06,26,09,57,22.40
2015,06,26,09,58,22.50
2015,06,26,09,59,22.50
2015,06,26,10,00,22.60
2015,06,26,10,01,22.70
2015,06,26,10,02,22.70
2015,06,26,10,03,22.80
2015,06,26,10,04,22.80
2015,06,26,10,05,22.90
2015,06,26,10,06,23.00
2015,06,26,10,07,23.00
2015,06,26,10,08,22.90
2015,06,26,10,09,22.90
2015,06,26,10,10,22.90
2015,06,26,10,11,23.00
2015,06,26,10,12,23.10
2015,06,26,10,13,23.20
2015,06,26,10,14,23.20
2015,06,26,10,15,23.30
2015,06,26,10,16,23.30
2015,06,26,10,17,23.40
2015,06,26,10,18,23.50
2015,06,26,10,19,23.50
2015,06,26,10,20,23.60
2015,06,26,10,21,23.60
2015,06,26,10,22,23.60
2015,06,26,10,23,23.60
2015,06,26,10,24,23.60
2015,06,26,10,25,23.60
2015,06,26,10,26,23.60
2015,06,26,10,27,23.60
2015,06,26,10,28,23.70
2015,06,26,10,29,23.70
2015,06,26,10,30,23.80
2015,06,26,10,31,23.80
2015,06,26,10,32,23.90
2015,06,26,10,33,24.00
2015,06,26,10,34,24.10
2015,06,26,10,35,24.20
2015,06,26,10,36,24.30
2015,06,26,10,37,24.40
2015,06,26,10,38,24.50
2015,06,26,10,39,24.50
2015,06,26,10,40,24.60
2015,06,26,10,41,24.70
2015,06,26,10,42,24.70
2015,06,26,10,43,24.70
2015,06,26,10,44,24.80
2015,06,26,10,45,24.80
2015,06,26,10,46,24.90
2015,06,26,10,47,25.00
2015,06,26,10,48,25.00
2015,06,26,10,49,25.00
2015,06,26,10,50,24.90
2015,06,26,10,51,24.90
2015,06,26,10,52,24.80
2015,06,26,10,53,24.60
2015,06,26,10,54,24.50
2015,06,26,10,55,24.50
2015,06,26,10,56,24.50
2015,06,26,10,57,24.50
2015,06,26,10,58,24.50
2015,06,26,10,59,24.60
2015,06,26,11,00,24.60
2015,06,26,11,01,24.60
2015,06,26,11,02,24.70
2015,06,26,11,03,24.70
2015,06,26,11,04,24.70
2015,06,26,11,05,24.70
2015,06,26,11,06,24.80
2015,06,26,11,07,24.80
2015,06,26,11,08,24.80
2015,06,26,11,09,24.80
2015,06,26,11,10,24.90
2015,06,26,11,11,25.00
2015,06,26,11,12,25.00
2015,06,26,11,13,25.10
2015,06,26,11,14,25.20
2015,06,26,11,15,25.30
2015,06,26,11,16,25.30
2015,06,26,11,17,25.40
2015,06,26,11,18,25.40
2015,06,26,11,19,25.30
2015,06,26,11,20,25.30
2015,06,26,11,21,25.30
2015,06,26,11,22,25.20
2015,06,26,11,23,25.10
2015,06,26,11,24,25.10
2015,06,26,11,25,25.10
2015,06,26,11,26,25.10
2015,06,26,11,27,25.20
2015,06,26,11,28,25.30
2015,06,26,11,29,25.30
2015,06,26,11,30,25.40
2015,06,26,11,31,25.40
2015,06,26,11,32,25.40
2015,06,26,11,33,25.40
2015,06,26,11,34,25.40
2015,06,26,11,35,25.30
2015,06,26,11,36,25.30
2015,06,26,11,37,25.30
2015,06,26,11,38,25.30
2015,06,26,11,39,25.30
2015,06,26,11,40,25.40
2015,06,26,11,41,25.50
2015,06,26,11,42,25.60
2015,06,26,11,43,25.60
2015,06,26,11,44,25.60
2015,06,26,11,45,25.60
2015,06,26,11,46,25.60
2015,06,26,11,47,25.70
2015,06,26,11,48,25.70
2015,06,26,11,49,25.70
2015,06,26,11,50,25.70
2015,06,26,11,51,25.80
2015,06,26,11,52,25.90
2015,06,26,11,53,25.90
2015,06,26,11,54,26.00
2015,06,26,11,55,26.00
2015,06,26,11,56,26.10
2015,06,26,11,57,26.10
2015,06,26,11,58,26.10
2015,06,26,11,59,26.10
2015,06,26,12,00,26.00
2015,06,26,12,01,26.00
2015,06,26,12,02,25.90
2015,06,26,12,03,25.90
2015,06,26,12,04,26.00
2015,06,26,12,05,26.00
2015,06,26,12,06,26.00
2015,06,26,12,07,26.10
2015,06,26,12,08,26.10
2015,06,26,12,09,26.10
2015,06,26,12,10,26.10
2015,06,26,12,11,26.00
2015,06,26,12,12,26.00
2015,06,26,12,13,26.00
2015,06,26,12,14,26.00
2015,06,26,12,15,26.00
2015,06,26,12,16,26.00
2015,06,26,12,17,26.00
2015,06,26,12,18,26.10
2015,06,26,12,19,26.10
2015,06,26,12,20,26.10
2015,06,26,12,21,26.20
2015,06,26,12,22,26.10
2015,06,26,12,23,26.10
2015,06,26,12,24,26.10
2015,06,26,12,25,26.10
2015,06,26,12,26,26.00
2015,06,26,12,27,26.00
2015,06,26,12,28,25.90
2015,06,26,12,29,25.90
2015,06,26,12,30,26.00
2015,06,26,12,31,26.10
2015,06,26,12,32,26.20
2015,06,26,12,33,26.30
2015,06,26,12,34,26.40
2015,06,26,12,35,26.40
2015,06,26,12,36,26.40
2015,06,26,12,37,26.40
2015,06,26,12,38,26.40
2015,06,26,12,39,26.50
2015,06,26,12,40,26.60
2015,06,26,12,41,26.70
2015,06,26,12,42,26.80
2015,06,26,12,43,26.90
2015,06,26,12,44,27.00
2015,06,26,12,45,27.10
2015,06,26,12,46,27.20
2015,06,26,12,47,27.20
2015,06,26,12,48,27.20
2015,06,26,12,49,27.20
2015,06,26,12,50,27.20
2015,06,26,12,51,27.30
2015,06,26,12,52,27.40
2015,06,26,12,53,27.40
2015,06,26,12,54,27.40
2015,06,26,12,55,27.40
2015,06,26,12,56,27.30
2015,06,26,12,57,27.20
2015,06,26,12,58,27.10
2015,06,26,12,59,27.00
2015,06,26,13,00,26.90
2015,06,26,13,01,26.80
2015,06,26,13,02,26.70
2015,06,26,13,03,26.70
2015,06,26,13,04,26.60
2015,06,26,13,05,26.60
2015,06,26,13,06,26.60
2015,06,26,13,07,26.60
2015,06,26,13,08,26.60
2015,06,26,13,09,26.70
2015,06,26,13,10,26.70
2015,06,26,13,11,26.80
2015,06,26,13,12,26.80
2015,06,26,13,13,26.90
2015,06,26,13,14,27.00
2015,06,26,13,15,27.00
2015,06,26,13,16,27.10
2015,06,26,13,17,27.10
2015,06,26,13,18,27.10
2015,06,26,13,19,27.10
2015,06,26,13,20,27.20
2015,06,26,13,21,27.30
2015,06,26,13,22,27.30
2015,06,26,13,23,27.40
2015,06,26,13,24,27.50
2015,06,26,13,25,27.60
2015,06,26,13,26,27.70
2015,06,26,13,27,27.70
2015,06,26,13,28,27.80
2015,06,26,13,29,27.90
2015,06,26,13,30,27.90
2015,06,26,13,31,27.90
2015,06,26,13,32,27.90
2015,06,26,13,33,27.90
2015,06,26,13,34,27.80
2015,06,26,13,35,27.70
2015,06,26,13,36,27.60
2015,06,26,13,37,27.50
2015,06,26,13,38,27.40
2015,06,26,13,39,27.40
2015,06,26,13,40,27.30
2015,06,26,13,41,27.30
2015,06,26,13,42,27.30
2015,06,26,13,43,27.30
2015,06,26,13,44,27.30
2015,06,26,13,45,27.30
2015,06,26,13,46,27.30
2015,06,26,13,47,27.30
2015,06,26,13,48,27.40
2015,06,26,13,49,27.30
2015,06,26,13,50,27.30
2015,06,26,13,51,27.30
2015,06,26,13,52,27.30
2015,06,26,13,53,27.30
2015,06,26,13,54,27.30
2015,06,26,13,55,27.30
2015,06,26,13,56,27.30
2015,06,26,13,57,27.30
2015,06,26,13,58,27.30
2015,06,26,13,59,27.30
2015,06,26,14,00,27.30
2015,06,26,14,01,27.30
2015,06,26,14,02,27.40
2015,06,26,14,03,27.50
2015,06,26,14,04,27.50
2015,06,26,14,05,27.60
2015,06,26,14,06,27.60
2015,06,26,14,07,27.60
2015,06,26,14,08,27.60
2015,06,26,14,09,27.60
2015,06,26,14,10,27.60
2015,06,26,14,11,27.60
2015,06,26,14,12,27.50
2015,06,26,14,13,27.50
2015,06,26,14,14,27.50
2015,06,26,14,15,27.50
2015,06,26,14,16,27.60
2015,06,26,14,17,27.60
2015,06,26,14,18,27.60
2015,06,26,14,19,27.60
2015,06,26,14,20,27.60
2015,06,26,14,21,27.60
2015,06,26,14,22,27.70
2015,06,26,14,23,27.70
2015,06,26,14,24,27.70
2015,06,26,14,25,27.70
2015,06,26,14,26,27.70
2015,06,26,14,27,27.80
2015,06,26,14,28,27.90
2015,06,26,14,29,27.90
2015,06,26,14,30,27.90
2015,06,26,14,31,28.00
2015,06,26,14,32,28.00
2015,06,26,14,33,28.10
2015,06,26,14,34,28.10
2015,06,26,14,35,28.20
2015,06,26,14,36,28.20
2015,06,26,14,37,28.30
2015,06,26,14,38,28.30
2015,06,26,14,39,28.20
2015,06,26,14,40,28.20
2015,06,26,14,41,28.30
2015,06,26,14,42,28.30
2015,06,26,14,43,28.30
2015,06,26,14,44,28.30
2015,06,26,14,45,28.40
2015,06,26,14,46,28.40
2015,06,26,14,47,28.40
2015,06,26,14,48,28.40
2015,06,26,14,49,28.50
2015,06,26,14,50,28.50
2015,06,26,14,51,28.60
2015,06,26,14,52,28.70
2015,06,26,14,53,28.70
2015,06,26,14,54,28.70
2015,06,26,14,55,28.60
2015,06,26,14,56,28.60
2015,06,26,14,57,28.60
2015,06,26,14,58,28.60
2015,06,26,14,59,28.60
2015,06,26,15,00,28.60
2015,06,26,15,01,28.60
2015,06,26,15,02,28.50
2015,06,26,15,03,28.50
2015,06,26,15,04,28.50
2015,06,26,15,05,28.50
2015,06,26,15,06,28.60
2015,06,26,15,07,28.60
2015,06,26,15,08,28.70
2015,06,26,15,09,28.80
2015,06,26,15,10,28.80
2015,06,26,15,11,28.80
2015,06,26,15,12,28.90
2015,06,26,15,13,28.80
2015,06,26,15,14,28.80
2015,06,26,15,15,28.70
2015,06,26,15,16,28.70
2015,06,26,15,17,28.60
2015,06,26,15,18,28.60
2015,06,26,15,19,28.60
2015,06,26,15,20,28.50
2015,06,26,15,21,28.50
2015,06,26,15,22,28.50
2015,06,26,15,23,28.60
2015,06,26,15,24,28.60
2015,06,26,15,25,28.60
2015,06,26,15,26,28.60
2015,06,26,15,27,28.60
2015,06,26,15,28,28.60
2015,06,26,15,29,28.60
2015,06,26,15,30,28.70
2015,06,26,15,31,28.70
2015,06,26,15,32,28.80
2015,06,26,15,33,28.80
2015,06,26,15,34,28.90
2015,06,26,15,35,29.00
2015,06,26,15,36,29.10
2015,06,26,15,37,29.20
2015,06,26,15,38,29.30
2015,06,26,15,39,29.30
2015,06,26,15,40,29.30
2015,06,26,15,41,29.40
2015,06,26,15,42,29.40
2015,06,26,15,43,29.40
2015,06,26,15,44,29.40
2015,06,26,15,45,29.40
2015,06,26,15,46,29.40
2015,06,26,15,47,29.50
2015,06,26,15,48,29.60
2015,06,26,15,49,29.60
2015,06,26,15,50,29.60
2015,06,26,15,51,29.60
2015,06,26,15,52,29.60
2015,06,26,15,53,29.50
2015,06,26,15,54,29.50
2015,06,26,15,55,29.40
2015,06,26,15,56,29.40
2015,06,26,15,57,29.50
2015,06,26,15,58,29.50
2015,06,26,15,59,29.50
2015,06,26,16,00,29.60
2015,06,26,16,01,29.70
2015,06,26,16,02,29.70
2015,06,26,16,03,29.70
2015,06,26,16,04,29.60
2015,06,26,16,05,29.60
2015,06,26,16,06,29.60
2015,06,26,16,07,29.60
2015,06,26,16,08,29.70
2015,06,26,16,09,29.70
2015,06,26,16,10,29.60
2015,06,26,16,11,29.60
2015,06,26,16,12,29.60
2015,06,26,16,13,29.60
2015,06,26,16,14,29.60
2015,06,26,16,15,29.60
2015,06,26,16,16,29.70
2015,06,26,16,17,29.70
2015,06,26,16,18,29.70
2015,06,26,16,19,29.70
2015,06,26,16,20,29.70
2015,06,26,16,21,29.70
2015,06,26,16,22,29.70
2015,06,26,16,23,29.60
2015,06,26,16,24,29.60
2015,06,26,16,25,29.50
2015,06,26,16,26,29.40
2015,06,26,16,27,29.40
2015,06,26,16,28,29.40
2015,06,26,16,29,29.40
2015,06,26,16,30,29.50
2015,06,26,16,31,29.60
2015,06,26,16,32,29.70
2015,06,26,16,33,29.80
2015,06,26,16,34,29.80
2015,06,26,16,35,29.90
2015,06,26,16,36,29.90
2015,06,26,16,37,29.80
2015,06,26,16,38,29.70
2015,06,26,16,39,29.60
2015,06,26,16,40,29.50
2015,06,26,16,41,29.40
2015,06,26,16,42,29.40
2015,06,26,16,43,29.30
2015,06,26,16,44,29.20
2015,06,26,16,45,29.20
2015,06,26,16,46,29.20
2015,06,26,16,47,29.20
2015,06,26,16,48,29.20
2015,06,26,16,49,29.10
2015,06,26,16,50,29.10
2015,06,26,16,51,29.00
2015,06,26,16,52,28.90
2015,06,26,16,53,28.80
2015,06,26,16,54,28.80
2015,06,26,16,55,28.80
2015,06,26,16,56,28.70
2015,06,26,16,57,28.70
2015,06,26,16,58,28.60
2015,06,26,16,59,28.60
2015,06,26,17,00,28.60
2015,06,26,17,01,28.70
2015,06,26,17,02,28.70
2015,06,26,17,03,28.70
2015,06,26,17,04,28.60
2015,06,26,17,05,28.60
2015,06,26,17,06,28.60
2015,06,26,17,07,28.70
2015,06,26,17,08,28.70
2015,06,26,17,09,28.70
2015,06,26,17,10,28.60
2015,06,26,17,11,28.60
2015,06,26,17,12,28.60
2015,06,26,17,13,28.70
2015,06,26,17,14,28.70
2015,06,26,17,15,28.80
2015,06,26,17,16,28.80
2015,06,26,17,17,28.90
2015,06,26,17,18,28.90
2015,06,26,17,19,28.90